Wind_Speed
53 54 55 54 52 52 53 54 54 53 52 52 50 49 48 47 45 39 32 31 32 32 31 28 31 37 36 34 32 31 32 30 27 24 23 23 25 25 25 24 25 26 26 25 26 29 29 27 24 21 20 20 18 19 21 21 21 21 22 24 24 23 21 21 22 22 24 24 23 22 22 23 24 23 22 22 19 15 12 8 7 6 6 7 9 10
53 55 53 50 49 50 52 52 53 52 51 51 49 48 47 46 43 37 31 29 30 31 30 27 30 36 36 34 34 32 31 28 25 24 23 23 24 25 25 24 24 26 26 26 26 28 30 30 29 26 23 19 16 18 20 21 22 23 22 22 21 20 20 21 23 24 24 24 23 23 23 22 21 20 19 18 17 13 9 7 7 7 8 9 10 11
54 52 48 47 49 50 52 52 52 51 51 51 49 48 47 44 41 37 31 28 29 29 28 30 32 33 34 34 36 33 28 26 25 25 24 22 23 24 24 24 24 26 26 25 25 27 29 30 30 31 27 20 15 17 19 21 22 23 22 21 19 20 21 23 25 26 26 24 23 22 22 20 17 16 17 17 15 12 10 9 9 9 9 10 11 12
52 48 47 50 50 50 52 54 53 51 51 52 50 49 47 44 41 38 33 28 28 28 27 31 34 33 33 34 35 32 28 24 23 25 25 25 24 23 25 25 25 26 24 23 25 26 27 28 28 27 22 16 15 16 18 20 21 21 20 18 17 19 22 24 26 27 27 25 23 22 21 19 16 16 17 17 15 15 13 12 12 11 12 12 13 14
49 47 49 51 49 50 53 54 53 51 52 51 50 49 48 44 41 37 31 27 26 28 30 32 34 35 35 34 34 33 30 25 23 24 25 26 26 25 26 25 25 25 22 22 23 24 26 29 30 25 16 13 15 16 17 18 18 18 17 15 15 18 21 23 23 23 23 22 22 22 21 19 18 17 17 17 17 17 16 14 13 13 13 13 14 15
50 49 48 48 48 50 53 54 52 52 52 51 49 48 47 44 40 35 30 26 27 33 36 36 36 37 36 34 34 34 32 27 24 24 25 25 25 25 26 26 26 25 23 22 22 22 25 29 30 22 14 13 14 15 16 16 15 14 13 13 14 16 18 19 19 17 17 18 19 20 19 18 17 16 16 17 17 16 15 14 13 13 13 14 14 15
52 50 47 48 51 53 54 53 52 53 52 51 48 46 45 43 41 37 31 27 30 35 38 38 37 38 36 35 35 33 32 28 24 25 24 23 23 23 24 26 27 25 22 21 21 21 23 27 26 19 13 14 14 14 15 14 13 12 11 12 14 15 14 15 16 16 15 16 18 18 17 16 14 13 14 15 14 14 14 14 13 13 14 14 14 15
52 50 49 51 53 54 53 51 51 53 52 49 46 43 41 40 40 37 33 28 30 35 39 40 39 37 36 34 33 32 28 24 22 23 23 22 23 23 24 27 28 25 23 22 21 21 21 24 22 15 13 14 13 13 14 13 13 14 13 13 15 16 15 14 14 15 16 17 18 17 17 15 13 13 15 16 14 14 14 13 13 14 14 14 15 15
52 52 52 52 53 52 48 47 50 52 51 47 44 40 39 37 36 36 33 28 30 36 40 43 42 40 39 37 34 34 31 25 22 23 23 23 24 24 25 26 26 25 24 22 21 22 24 25 18 13 14 13 12 13 13 13 14 14 13 12 13 15 16 15 12 13 15 16 16 16 15 14 14 16 16 14 13 13 13 13 13 13 14 15 15 17
52 52 51 51 51 49 47 47 49 51 49 45 42 40 41 39 36 37 34 29 32 39 42 43 42 42 43 40 36 35 32 27 25 25 26 25 25 24 24 24 23 24 23 21 21 22 25 24 17 12 13 13 12 13 12 13 14 13 11 10 11 12 14 16 14 14 15 15 15 15 14 14 15 15 13 11 11 12 12 12 12 14 15 16 17 18
51 49 49 49 49 47 46 47 48 49 48 44 43 43 44 41 38 37 36 33 36 43 46 45 44 44 45 43 38 32 25 23 25 26 27 26 25 24 23 22 22 22 22 20 20 21 21 20 16 13 13 12 12 13 13 14 13 11 9 9 9 10 11 13 14 15 15 15 15 15 14 13 13 12 10 10 10 11 12 12 14 15 16 17 19 20
50 48 48 48 48 46 46 47 48 50 49 45 47 49 46 41 39 38 37 36 38 46 47 44 42 43 46 46 42 36 27 24 25 25 26 25 24 24 23 21 20 21 21 21 21 22 21 17 14 13 12 12 12 13 15 15 11 8 8 8 9 9 8 9 10 12 13 13 13 12 11 11 10 9 9 10 11 13 14 14 15 16 18 19 20 22
50 48 47 47 47 47 48 49 49 49 49 49 50 51 47 43 44 44 41 40 42 45 46 43 43 42 43 45 45 37 28 24 24 24 23 23 23 22 21 19 20 21 23 23 22 22 22 18 14 12 12 12 13 15 16 15 11 8 8 9 10 9 9 8 9 9 10 9 9 9 9 9 9 9 10 12 13 15 15 15 17 18 19 21 22 24
50 47 47 47 48 50 50 50 51 50 51 54 54 52 49 47 49 51 47 44 42 42 42 41 43 44 44 47 46 37 27 24 26 26 24 24 24 22 21 20 20 21 23 24 23 22 22 21 15 13 12 13 14 15 15 14 13 12 10 10 10 9 9 9 9 8 8 8 8 8 8 9 10 11 13 14 15 16 17 18 19 20 22 23 25 26
49 49 50 50 50 52 51 50 51 49 49 53 53 51 51 47 48 53 53 49 43 39 38 39 39 40 40 41 39 34 30 28 29 29 27 26 25 24 22 20 19 21 23 23 23 22 22 19 15 14 13 14 15 15 15 14 15 14 12 10 10 9 9 9 9 8 8 8 8 8 10 11 13 14 15 16 16 17 19 20 21 22 24 25 26 26
43 44 48 48 47 49 50 50 48 46 47 48 47 48 51 49 46 50 53 50 44 39 39 40 37 36 34 32 30 29 30 30 29 28 27 27 27 25 22 18 18 20 21 22 22 20 19 17 15 14 14 14 15 15 14 14 15 14 12 11 10 10 10 9 9 9 8 9 10 11 12 13 15 16 17 18 18 19 19 21 22 23 24 25 26 27
40 38 42 43 40 42 46 46 46 45 45 46 48 49 50 51 49 49 50 48 43 40 40 40 38 35 33 31 30 30 31 31 29 26 24 23 25 25 21 18 18 18 18 20 20 20 19 17 15 15 14 14 15 14 14 15 15 14 13 11 10 10 10 10 9 10 10 11 12 14 15 15 16 17 17 17 18 18 19 20 22 23 24 25 27 28
40 34 37 39 34 35 40 42 44 44 43 46 50 49 45 46 48 48 49 49 45 42 42 41 38 36 34 33 33 34 34 33 30 27 24 21 21 21 19 17 17 17 18 19 20 20 19 17 16 15 14 15 14 13 15 17 16 14 13 12 11 11 11 11 12 12 13 14 14 15 15 16 16 16 16 17 17 19 20 22 23 25 26 27 28 29
35 26 31 38 34 35 41 43 42 39 41 46 49 46 41 40 43 44 47 50 50 49 46 43 41 39 36 36 37 35 35 33 28 22 20 20 18 15 15 16 16 17 18 19 20 20 19 17 16 15 14 14 14 15 17 18 16 15 14 13 12 12 12 13 14 14 14 15 15 15 14 15 15 15 16 17 19 21 23 25 26 27 27 28 29 29
32 26 31 41 39 38 41 44 42 38 42 48 46 41 37 36 39 39 40 42 45 48 48 44 44 44 42 42 40 37 37 34 27 20 16 17 17 15 15 16 16 16 17 19 20 20 19 17 16 15 14 14 14 16 18 17 17 16 15 14 13 13 13 14 14 14 15 14 14 14 14 15 16 17 18 20 22 24 25 26 27 27 28 28 29 29
32 31 35 39 41 41 43 47 46 41 45 51 46 39 37 38 37 34 32 33 34 39 44 44 42 43 45 45 41 39 41 36 29 23 18 16 15 13 14 15 14 14 16 18 18 18 18 16 15 15 14 13 14 14 15 16 17 16 15 14 14 14 14 15 15 14 14 13 13 14 16 17 18 20 21 22 24 25 26 27 27 28 28 29 29 30
32 34 35 35 41 46 48 49 47 43 45 50 48 43 41 42 41 35 29 28 30 30 34 38 37 36 39 40 38 40 42 37 32 27 23 21 19 16 15 15 14 13 14 16 17 18 17 15 15 15 14 14 15 14 14 16 18 17 16 15 14 14 15 15 14 13 13 14 15 17 18 20 21 22 23 24 25 26 27 28 28 29 29 30 30 31
35 36 30 27 33 39 43 46 45 43 43 43 44 45 44 43 42 40 31 25 27 27 25 28 31 32 32 31 33 39 41 36 33 30 25 24 23 20 19 17 15 15 15 17 19 19 18 16 15 15 16 16 16 15 16 17 19 18 16 15 14 14 15 14 13 14 14 15 17 19 20 21 22 23 23 24 26 27 28 29 29 29 30 30 31 32
37 34 28 24 26 31 40 44 38 36 37 36 37 40 43 44 41 39 33 24 23 25 24 23 25 29 30 25 27 35 38 34 33 30 24 23 23 21 20 19 18 17 16 18 20 21 19 17 16 16 17 17 17 16 16 17 18 17 15 14 14 15 14 14 14 15 16 17 18 20 21 21 22 23 24 25 26 28 29 29 30 30 31 31 32 32
33 30 29 31 32 35 45 46 36 35 39 39 37 34 36 41 39 35 30 24 22 22 22 21 21 25 29 28 29 34 36 33 31 29 23 19 19 19 19 19 19 19 17 17 19 21 21 19 17 18 19 18 18 17 16 17 18 16 15 15 16 15 15 15 17 17 17 18 19 20 21 22 23 24 25 26 27 29 30 30 31 31 31 32 32 32
31 31 31 34 36 38 48 51 43 43 46 46 44 36 32 35 36 34 32 28 26 23 19 19 21 22 26 28 30 33 33 32 31 31 26 21 18 16 16 18 19 19 18 18 19 20 21 20 20 20 21 21 20 18 18 19 17 15 16 16 16 16 17 17 18 18 18 19 20 21 23 24 25 25 26 27 28 30 31 31 31 32 32 32 32 32
30 31 30 32 35 35 43 51 49 46 47 50 48 41 36 36 33 34 35 31 28 26 21 21 21 20 21 24 27 28 28 27 29 30 28 23 19 17 17 19 20 20 20 20 20 21 22 22 22 22 23 23 22 21 20 20 18 16 17 17 17 17 17 17 18 19 19 20 21 23 25 26 27 27 28 29 30 31 32 32 32 32 33 33 32 32
30 30 29 32 34 30 33 44 50 48 46 49 49 44 39 38 35 35 36 33 31 29 26 25 25 23 21 23 26 27 25 23 22 20 18 17 18 18 19 20 20 21 21 21 21 22 23 23 23 24 24 25 24 22 21 21 19 18 18 18 18 18 18 18 19 21 22 22 24 26 27 28 29 29 30 31 32 32 33 33 33 33 33 33 32 32
31 30 30 31 29 24 23 30 41 48 46 43 46 46 40 35 34 34 34 32 33 33 30 29 29 27 26 26 27 28 27 25 21 16 13 13 14 15 17 19 20 21 21 21 22 22 23 24 24 25 25 26 25 23 22 21 20 20 20 20 20 20 19 19 21 23 24 25 26 27 29 30 30 31 31 32 33 33 33 33 33 34 33 32 32 31
31 31 30 28 23 20 20 20 26 38 45 45 44 43 41 38 35 33 33 33 32 32 32 32 31 29 29 29 29 30 30 27 22 16 12 11 11 12 15 18 20 21 22 22 23 24 25 25 25 26 26 26 25 24 24 23 23 23 22 23 23 22 21 21 23 25 26 26 27 29 30 31 31 32 33 33 34 33 33 33 34 34 33 32 30 29
30 31 31 29 26 24 24 23 20 24 34 44 45 41 41 42 39 36 35 34 31 29 30 33 35 34 33 33 33 34 33 31 26 22 18 15 13 13 15 17 19 20 21 23 24 25 27 27 26 26 26 26 25 25 24 24 24 24 24 25 25 24 24 24 25 27 28 28 29 31 31 31 33 33 33 34 34 34 33 33 34 33 32 31 29 29
31 34 34 32 32 30 30 29 28 23 23 33 42 42 41 42 43 41 38 36 34 32 32 34 35 35 36 35 34 34 34 33 33 30 26 22 19 19 19 20 21 21 21 23 25 26 28 28 28 27 27 26 26 26 25 24 25 25 25 27 27 27 27 27 28 30 30 30 31 32 32 32 33 34 34 34 34 34 33 33 34 33 31 30 29 29
33 36 37 35 33 33 33 32 31 27 22 26 34 39 39 41 43 44 41 38 37 37 37 38 36 36 38 39 36 33 31 30 29 27 24 21 20 20 20 21 23 23 23 23 25 27 28 29 29 29 29 28 28 28 27 26 26 26 27 29 29 28 29 29 30 32 32 32 32 32 32 33 34 34 34 34 35 34 33 33 33 32 30 29 29 29
33 32 35 35 32 33 35 34 32 29 25 27 33 38 41 43 44 45 45 42 40 40 41 41 38 37 39 41 39 37 35 31 28 25 22 19 18 17 17 17 19 21 22 24 25 26 27 28 29 30 30 31 31 30 29 28 28 28 30 31 31 31 31 32 33 34 33 33 33 32 33 34 35 35 35 35 34 34 33 33 32 30 29 29 28 28
34 31 31 30 29 32 37 36 34 30 28 30 34 37 40 43 44 45 45 44 44 45 45 44 41 40 42 43 42 40 38 36 33 30 27 24 24 25 26 23 20 20 21 23 25 27 27 27 28 30 31 32 32 31 31 31 30 31 32 33 33 33 33 34 34 34 33 33 32 32 33 35 35 35 35 34 34 34 33 32 30 29 28 28 28 27
34 34 34 31 28 31 37 37 34 32 32 32 33 34 36 39 42 43 43 43 44 45 46 45 44 44 45 46 45 44 42 40 38 36 33 32 33 34 33 29 25 23 22 23 25 27 28 29 30 31 32 32 32 32 32 32 33 34 35 35 35 35 34 34 33 33 32 32 32 33 34 36 36 35 35 34 34 33 32 31 29 28 28 28 27 27
34 34 35 33 30 29 34 36 33 31 30 29 28 29 31 33 36 39 40 41 42 43 44 44 43 43 43 43 44 45 43 42 39 37 35 35 34 33 31 30 29 27 24 24 26 28 30 31 32 32 33 33 33 32 32 33 34 34 35 35 34 34 33 32 31 31 32 32 33 34 35 36 36 35 35 34 33 32 31 30 28 28 27 28 27 27
36 35 34 33 30 28 30 33 33 31 29 27 25 25 26 28 31 32 33 35 36 37 39 40 41 41 40 42 44 44 42 41 40 37 35 33 31 30 31 31 31 28 26 25 27 29 31 33 33 33 34 33 33 32 31 32 33 33 33 33 32 32 31 31 31 32 32 33 34 34 35 36 36 35 34 33 32 31 31 30 29 28 28 28 27 27
35 34 34 34 32 28 28 29 30 30 29 27 26 26 27 28 28 28 28 29 29 30 32 34 35 34 34 37 40 41 40 40 40 37 33 30 30 30 31 32 31 29 29 29 29 30 32 33 34 34 34 33 33 32 32 33 33 33 33 32 32 32 32 32 33 33 33 33 34 34 35 37 37 35 33 32 31 31 30 30 29 28 28 28 27 27
32 32 34 34 32 29 28 26 26 28 28 27 26 26 25 24 24 26 27 28 28 29 30 30 29 28 28 31 34 36 38 38 36 33 31 30 30 32 32 32 31 30 30 31 31 31 32 33 34 34 33 33 33 33 34 34 34 34 33 33 33 33 33 34 34 33 33 33 34 35 36 37 35 33 32 31 31 31 30 29 28 28 28 28 27 26
31 30 31 30 28 28 28 27 26 28 29 28 27 26 25 23 23 24 26 26 27 28 30 30 28 26 27 29 30 32 34 34 31 30 30 29 29 31 33 32 32 31 30 30 31 32 33 33 33 33 33 33 34 34 35 35 35 34 34 33 33 33 33 34 34 32 32 33 34 35 36 35 33 32 31 31 31 31 30 29 28 28 28 28 27 26
29 29 29 28 27 27 27 26 26 28 29 28 26 25 26 26 25 25 25 26 27 29 30 30 29 28 29 30 30 31 33 32 30 29 28 27 27 30 32 32 33 32 31 31 32 33 33 34 34 34 34 34 35 35 35 36 35 35 34 34 33 33 33 34 33 32 33 35 34 34 34 33 32 32 31 31 31 31 30 29 28 28 28 28 27 27
26 28 29 28 28 27 26 25 26 28 29 26 24 22 23 25 25 24 24 25 26 27 28 28 28 28 29 31 32 33 33 32 30 29 29 28 27 28 30 32 32 31 31 31 31 31 32 34 34 35 35 35 35 36 36 36 36 35 35 34 33 32 33 33 33 33 34 34 32 32 32 33 32 32 31 31 31 31 30 29 28 28 28 28 27 27
22 26 29 29 29 29 29 28 28 29 28 25 22 19 19 22 24 24 24 23 23 25 27 27 26 26 27 29 31 32 30 28 27 27 28 29 28 27 29 30 30 29 29 30 31 32 33 34 34 35 35 35 35 36 35 35 35 35 34 34 32 32 32 33 33 33 33 33 33 34 34 34 33 32 31 31 32 31 30 29 28 28 29 28 28 27
20 23 26 28 29 29 29 29 29 28 27 24 22 20 19 21 24 26 26 25 24 24 25 25 25 26 26 27 28 28 26 24 24 25 27 29 28 27 29 31 30 29 29 29 30 32 32 33 34 34 34 34 34 34 34 34 34 34 34 34 33 33 34 34 34 34 34 34 35 36 36 35 33 31 31 32 32 32 31 30 29 29 29 29 28 28
18 19 22 25 26 27 28 28 26 23 22 22 23 23 23 24 26 26 26 25 24 25 25 25 25 25 26 27 27 27 27 27 27 27 28 28 28 28 30 31 30 28 28 29 31 31 31 32 33 33 33 32 32 32 32 32 33 34 34 34 34 35 36 36 35 34 34 35 36 37 36 35 33 32 32 33 33 32 31 30 30 30 30 29 28 28
17 16 17 19 21 23 25 26 23 19 19 21 22 23 24 25 26 27 27 26 25 25 26 26 25 25 26 27 27 28 29 30 29 28 28 28 28 29 28 28 27 26 27 29 31 31 32 33 33 32 32 32 32 32 31 32 33 34 34 35 36 36 37 37 36 35 35 36 37 37 36 35 33 33 34 34 34 33 32 31 31 31 30 29 28 27
17 16 16 17 19 20 22 22 20 18 19 21 21 22 23 24 24 25 27 27 26 26 27 27 27 27 26 27 27 28 30 30 30 30 30 30 30 29 26 24 25 26 28 29 30 31 32 33 33 32 32 32 32 32 32 32 33 33 34 35 36 37 37 37 36 35 35 37 38 37 36 35 34 34 35 35 35 35 33 32 32 32 30 28 27 28
17 18 19 18 18 19 20 19 18 17 18 19 20 20 21 22 22 23 26 27 27 27 27 27 27 27 27 27 27 29 30 30 30 31 31 31 30 29 27 26 27 28 29 30 31 32 33 33 33 33 33 33 33 32 33 34 34 33 34 35 36 37 37 37 36 35 36 38 39 38 37 36 36 36 36 37 37 36 34 34 33 32 29 27 27 28
17 19 19 19 19 19 19 18 17 16 17 18 19 19 20 20 20 22 24 25 24 23 24 25 26 26 27 27 28 29 30 31 31 31 31 29 29 28 28 28 29 29 29 30 31 31 32 32 33 33 33 33 33 33 34 35 34 34 34 34 35 36 36 36 36 37 38 40 40 40 38 37 37 38 38 38 38 37 35 34 33 30 28 27 28 28
19 19 18 18 19 20 19 18 18 19 20 19 19 19 19 19 19 20 22 22 21 20 22 23 24 25 25 26 26 27 29 30 30 30 30 28 28 29 29 30 30 29 29 30 30 30 31 31 32 32 32 32 33 33 34 34 34 34 34 34 34 35 35 36 37 38 39 41 41 40 39 39 40 40 40 40 41 39 35 32 31 29 27 28 29 28
Wind_Direction
213 213 214 216 217 217 217 219 220 219 219 222 224 226 226 227 228 225 219 225 230 228 228 234 243 244 244 245 246 247 249 251 255 257 254 250 249 251 253 253 252 255 257 254 249 242 237 233 230 238 245 241 241 251 261 268 273 278 284 285 280 273 270 272 272 270 269 271 273 274 273 272 272 271 264 253 241 235 240 259 278 278 283 291 295 301
212 213 215 216 217 216 215 216 217 217 217 219 221 225 226 226 228 225 217 221 231 232 230 233 240 244 246 246 244 244 247 250 253 255 254 252 251 252 254 256 254 254 252 249 245 241 238 235 232 237 247 249 250 257 264 270 273 277 281 283 279 267 266 272 274 272 270 270 273 272 269 272 270 263 256 244 231 235 252 270 282 287 292 296 300 304
213 214 214 214 214 214 212 213 215 214 215 217 218 221 224 223 224 223 215 215 227 231 233 238 241 246 249 247 246 244 244 249 251 251 253 253 252 253 255 257 255 253 252 250 246 244 243 239 237 243 252 258 258 261 267 271 275 277 277 276 270 264 266 270 273 273 272 271 271 267 266 267 261 252 251 246 242 254 268 277 289 296 299 302 305 305
214 213 211 211 212 211 210 211 212 212 214 216 215 217 220 219 218 219 212 207 221 231 235 241 245 248 247 244 247 248 248 249 252 254 255 253 252 252 255 257 256 254 252 251 251 249 244 241 246 253 255 257 259 262 267 272 277 279 275 268 262 262 266 269 271 272 272 269 264 262 264 260 251 249 251 252 262 270 273 282 294 300 303 305 306 306
215 212 209 209 209 209 210 210 208 209 212 214 215 217 218 216 213 215 209 203 219 232 235 240 244 248 246 243 247 251 250 250 253 256 256 255 251 250 254 256 257 257 254 249 247 246 244 246 254 258 255 256 261 264 269 275 279 280 274 264 261 266 268 267 268 271 271 266 260 259 259 253 249 250 249 257 272 273 271 281 292 298 302 303 303 303
212 212 210 208 208 208 210 209 207 208 210 212 214 215 218 215 209 208 203 202 219 227 229 235 239 246 250 250 251 251 250 251 252 253 253 254 252 250 253 256 258 257 250 238 233 239 247 252 254 252 251 258 261 265 270 276 278 278 274 262 262 270 270 264 261 266 267 263 261 258 251 247 246 246 251 264 273 271 272 280 288 294 297 298 300 303
210 210 207 208 208 208 208 207 206 207 208 210 211 212 217 215 207 201 195 202 222 227 231 236 241 248 253 255 255 253 251 250 246 244 245 251 254 252 253 256 257 252 241 232 233 242 252 254 250 245 249 256 260 264 267 272 272 266 264 259 257 264 270 266 260 258 259 260 259 253 245 242 238 243 260 274 276 274 277 282 287 292 294 296 300 305
208 207 205 207 209 208 208 205 204 207 206 207 209 207 209 213 210 198 189 201 226 236 238 239 243 248 250 249 250 251 249 242 236 236 239 248 256 257 256 256 255 249 244 245 249 251 251 251 249 243 246 254 257 263 265 264 259 253 253 254 251 255 262 264 259 254 252 252 251 248 244 241 240 254 272 280 279 278 281 285 290 293 296 301 305 307
206 206 205 206 209 208 206 205 205 207 206 203 205 202 198 204 205 191 187 205 227 236 236 234 237 242 243 242 243 245 243 233 230 236 241 249 257 260 260 258 257 256 255 256 257 255 251 247 243 239 245 253 258 262 262 253 246 244 243 243 246 251 254 256 256 251 247 246 244 243 243 246 256 267 274 278 279 281 286 290 294 297 301 306 308 309
205 206 205 206 208 205 202 203 205 207 205 199 198 196 192 196 193 181 186 205 220 229 232 232 235 239 243 244 243 242 241 235 236 243 247 251 256 259 260 257 258 261 260 257 255 253 248 239 229 232 246 255 264 265 256 239 231 229 230 238 248 251 250 249 248 245 243 244 242 242 249 260 267 271 273 277 279 282 287 292 296 301 305 307 309 310
205 205 205 205 206 203 200 200 203 206 203 194 192 192 191 196 192 182 188 201 216 226 229 233 237 240 244 246 244 242 242 241 242 246 249 251 254 256 258 257 257 260 257 250 247 247 245 241 235 237 248 258 264 258 241 224 218 222 232 245 247 244 243 245 245 243 244 246 246 249 256 261 263 267 272 274 277 282 288 294 300 303 305 306 307 308
202 204 204 203 202 200 199 200 201 204 200 190 190 191 190 194 192 185 191 204 218 225 227 231 237 241 246 247 246 246 247 247 246 249 252 251 253 253 254 255 254 255 251 244 246 246 245 256 256 240 243 254 253 245 233 222 220 235 251 249 240 234 232 234 238 239 240 242 246 250 253 256 262 271 277 281 286 292 295 299 301 302 304 305 305 306
199 202 203 201 200 198 199 198 198 202 197 189 190 192 188 191 190 186 194 206 216 224 227 230 232 236 244 247 248 250 250 247 245 247 248 248 250 251 252 252 249 250 248 246 246 240 244 267 270 240 239 251 250 245 236 227 232 255 258 245 235 228 221 219 226 229 230 231 236 244 250 261 274 280 285 288 291 293 295 298 299 300 302 302 302 303
197 199 201 201 199 198 198 197 196 199 196 191 192 191 186 189 190 190 197 204 211 220 225 227 228 231 238 245 249 252 253 248 242 241 243 245 248 247 249 252 249 246 245 245 242 237 249 272 271 244 242 251 252 252 244 236 245 255 251 236 226 221 218 218 225 226 224 227 234 248 260 269 275 276 279 282 285 289 293 295 297 298 299 299 299 300
194 196 200 200 199 198 197 197 196 197 196 195 195 190 186 191 196 197 201 204 206 214 221 224 226 228 234 242 247 249 248 244 240 239 240 242 245 246 249 253 253 249 245 245 243 240 253 266 260 248 247 251 254 254 249 246 250 250 243 231 225 225 225 223 225 227 229 238 248 259 266 270 274 277 280 284 287 290 292 294 295 296 296 297 298 300
189 195 198 197 199 199 198 196 194 195 198 196 189 185 186 194 201 204 206 206 207 211 219 225 227 229 232 236 241 243 244 243 241 242 242 244 247 248 250 252 254 252 246 245 245 245 251 254 250 248 246 247 251 250 249 247 245 242 235 229 229 232 234 233 234 236 242 251 258 264 268 271 276 280 284 288 289 290 292 294 295 295 297 298 300 302
185 193 196 193 197 198 198 196 189 191 198 192 183 183 189 196 204 209 210 209 210 213 220 226 229 231 231 232 235 239 243 246 247 247 246 249 251 251 253 253 252 248 242 241 243 244 247 247 245 245 243 244 248 247 244 238 234 233 231 230 232 238 243 248 251 253 255 258 263 268 273 277 280 283 285 288 291 293 295 296 297 298 300 301 302 303
186 192 194 190 191 191 195 195 186 188 195 190 186 186 188 195 204 211 214 214 214 216 221 226 229 231 232 232 236 241 246 252 254 252 250 251 254 253 250 248 245 243 240 239 239 240 242 244 245 246 244 245 248 243 233 229 228 230 230 231 236 243 250 256 259 260 262 265 269 274 278 281 284 287 290 294 297 299 300 300 301 302 303 303 303 303
180 182 185 184 178 174 183 187 183 189 194 188 186 186 186 195 203 208 214 217 217 219 222 226 229 232 234 237 240 244 250 254 252 252 251 250 251 248 241 242 245 245 241 237 236 238 239 241 244 245 244 249 249 237 226 225 227 227 230 233 239 247 253 257 260 262 266 269 273 278 281 283 287 291 296 300 302 302 302 302 302 303 304 304 304 303
173 175 181 182 173 169 179 181 180 190 192 184 183 187 191 199 204 207 213 216 220 223 223 226 231 233 235 239 243 247 251 251 249 250 252 249 246 243 239 242 246 244 240 235 235 237 237 238 240 238 240 246 242 228 222 223 225 227 231 235 240 248 252 256 260 264 268 272 277 282 286 288 292 296 299 302 302 302 302 302 303 304 304 304 305 305
175 181 184 182 175 177 185 182 180 188 187 181 183 189 196 199 201 205 212 214 218 224 224 224 229 235 237 240 243 246 248 251 253 253 247 240 237 238 239 243 244 242 239 237 237 238 237 234 235 234 234 235 229 221 220 223 225 228 231 235 240 246 252 257 263 267 272 277 281 285 288 292 295 298 301 302 303 302 302 303 304 305 305 306 306 306
180 188 188 186 185 186 187 183 183 184 179 179 184 191 198 198 195 197 204 213 216 221 225 224 225 232 239 243 244 245 247 251 255 253 246 241 240 241 245 247 247 247 248 246 243 241 239 233 232 233 228 226 225 225 225 223 224 227 230 233 239 246 253 260 265 271 275 279 283 286 289 293 296 299 301 302 303 303 303 304 304 305 305 306 306 305
177 188 189 190 194 192 185 183 186 180 173 178 186 193 198 197 198 198 198 209 215 215 223 225 224 228 234 243 248 249 251 254 255 255 252 249 248 249 249 249 250 253 257 256 249 245 242 234 232 232 225 223 225 227 225 222 223 227 228 231 240 248 256 263 268 271 274 278 282 285 288 292 294 297 299 301 302 303 303 304 304 304 304 304 304 304
171 180 183 180 182 181 178 179 180 176 177 183 186 194 198 195 201 203 198 207 218 216 222 224 222 223 224 234 245 249 254 256 256 258 258 253 251 251 249 246 247 252 254 255 252 250 247 239 236 234 227 224 224 223 221 220 223 226 226 232 242 249 256 263 266 269 272 275 278 282 285 289 292 295 298 300 302 302 303 303 303 303 303 303 303 303
168 168 171 172 168 173 180 179 174 176 185 187 182 188 196 196 201 202 195 206 219 218 223 223 218 217 218 227 239 246 253 257 258 260 258 250 246 249 248 244 243 246 248 249 249 250 249 243 238 236 232 228 226 222 219 220 224 225 226 233 243 250 256 260 263 267 270 273 277 281 285 288 291 295 297 299 301 302 302 302 302 302 302 302 303 303
173 163 165 175 177 182 187 185 182 182 185 185 181 183 190 192 198 199 194 202 212 213 214 210 210 216 219 225 234 242 250 254 254 253 251 247 247 249 248 243 240 241 243 243 244 246 247 241 237 237 235 233 229 224 220 222 225 225 228 236 244 251 257 260 263 266 269 274 279 282 285 288 291 294 297 300 301 301 302 302 303 302 302 302 303 303
176 167 167 178 183 190 193 189 186 185 186 187 183 181 186 186 188 195 197 198 203 207 206 201 202 213 224 228 231 237 245 250 251 249 249 251 249 245 242 241 241 241 240 239 239 241 242 240 237 237 237 236 232 227 223 224 225 225 231 239 246 252 257 260 264 266 268 274 279 282 285 289 292 296 299 301 302 302 303 303 303 302 302 303 303 304
178 172 172 173 177 190 198 192 190 189 191 191 186 181 184 185 183 191 198 201 203 203 205 206 204 206 220 229 229 233 239 245 247 245 246 246 240 235 236 237 239 239 238 237 236 238 240 239 238 238 238 238 234 229 227 227 227 229 235 242 247 253 258 261 266 269 270 274 278 282 286 289 293 297 299 301 302 302 303 303 302 302 302 303 304 305
178 173 172 168 171 184 192 193 197 198 197 197 193 188 185 180 180 189 197 204 212 209 206 210 212 212 219 226 228 233 238 241 241 237 236 236 233 233 235 235 235 235 235 235 235 238 240 239 240 240 240 240 237 234 231 229 229 232 237 243 248 253 258 261 266 270 273 276 280 282 285 288 292 296 298 300 301 301 302 302 302 302 302 303 305 306
172 169 163 153 154 166 170 181 201 205 203 205 204 198 194 189 185 191 197 201 210 213 211 215 219 218 221 225 228 233 239 242 240 235 235 236 230 229 231 232 235 235 234 234 234 236 238 238 240 241 242 243 241 238 235 232 232 235 239 244 249 254 259 263 266 270 274 278 281 282 285 288 290 294 297 299 300 300 301 301 301 301 302 304 306 307
166 164 157 152 159 164 164 176 202 210 207 210 210 205 204 203 197 197 203 205 207 207 210 220 225 224 225 228 230 234 240 246 247 245 244 239 226 221 223 228 233 236 237 237 236 236 236 236 238 241 244 246 245 243 240 237 237 239 242 246 251 255 260 264 267 270 273 278 281 283 284 286 288 292 296 298 298 299 300 300 300 300 301 304 306 307
164 162 158 160 169 169 167 181 200 203 200 208 211 209 210 212 207 202 207 213 212 205 203 213 222 226 228 231 233 236 241 246 250 251 250 247 241 238 237 238 241 243 244 244 240 238 236 235 236 238 242 244 245 246 245 243 243 244 246 249 252 255 259 263 267 269 273 277 280 282 283 284 287 291 294 296 297 298 299 298 298 299 301 304 305 306
164 167 166 165 168 169 168 180 195 199 193 196 202 206 210 216 215 209 207 211 214 213 211 214 219 226 231 233 235 237 240 245 248 250 253 255 252 246 244 245 246 247 246 244 243 241 239 238 237 238 239 241 243 246 246 246 246 247 249 251 253 257 261 264 267 269 272 276 278 280 281 283 286 289 292 295 296 297 297 297 297 298 300 302 304 305
169 170 169 168 169 171 172 180 190 195 193 191 194 200 207 214 219 217 211 209 212 217 220 222 224 228 234 238 240 241 244 247 248 249 252 253 249 248 253 257 254 250 246 243 242 242 242 243 243 243 242 243 245 246 246 246 247 248 250 252 254 257 260 262 264 267 271 274 276 277 279 282 285 289 292 294 295 295 295 295 296 298 300 301 303 304
182 180 179 176 175 174 177 184 190 191 190 190 195 203 208 214 220 222 219 216 217 222 226 228 228 230 236 243 246 248 249 249 250 252 255 255 254 259 265 267 264 258 252 246 243 242 242 243 243 244 244 245 246 246 246 246 246 247 248 250 252 255 257 259 262 266 270 272 273 275 278 282 285 288 290 292 292 293 293 294 296 298 299 301 302 303
191 194 196 194 188 181 182 187 191 195 199 199 202 208 212 215 220 223 223 222 222 226 230 232 233 236 241 247 251 252 253 252 252 253 255 255 256 260 264 265 262 258 253 249 246 245 243 241 240 241 242 243 245 245 245 246 247 248 249 251 253 255 257 260 263 266 268 269 272 275 279 281 284 287 289 290 290 291 292 294 295 297 299 300 300 302
194 199 202 201 196 190 191 194 197 202 207 209 210 213 214 217 222 225 226 227 227 229 231 233 234 237 241 246 249 251 253 253 253 251 251 253 256 259 262 261 258 254 252 250 249 248 246 243 242 242 243 243 243 244 244 245 247 249 251 253 255 257 259 261 263 264 266 269 272 275 278 281 283 285 287 288 289 291 293 294 295 296 297 298 299 301
200 203 203 199 195 192 193 197 201 203 207 208 209 211 214 219 225 228 229 232 234 235 235 236 236 238 240 244 248 251 252 254 253 251 250 252 255 257 258 256 254 251 249 249 250 248 246 245 245 245 244 244 244 243 243 244 245 247 250 252 254 256 258 260 261 262 265 269 272 274 277 280 282 284 286 287 290 292 293 294 293 294 295 297 298 300
200 204 206 201 198 198 198 199 202 205 207 209 209 209 214 221 228 231 231 232 234 237 240 241 242 241 240 242 246 250 252 252 254 254 253 251 251 251 251 251 250 248 245 246 247 246 244 244 244 244 244 245 245 243 242 243 244 245 247 249 252 254 256 257 259 261 264 267 270 274 277 279 281 283 285 287 290 292 293 293 292 292 294 296 297 299
192 200 205 203 200 203 204 203 207 212 211 210 211 211 214 219 224 230 232 231 232 235 239 242 243 242 239 239 242 246 248 249 252 254 251 247 244 245 246 247 247 245 243 243 244 243 243 242 243 244 245 245 245 243 242 243 244 245 247 249 251 252 254 256 257 260 263 267 270 273 275 277 279 282 285 288 290 292 293 292 291 291 293 295 296 297
189 197 203 202 198 200 203 204 212 220 220 218 218 219 222 223 224 227 230 230 230 232 235 237 239 240 242 242 242 244 246 247 248 248 247 243 241 242 244 245 246 245 243 242 241 241 242 242 243 244 244 244 244 243 243 244 245 246 247 249 250 252 253 255 257 260 264 266 269 272 274 276 278 281 285 288 291 293 293 292 291 291 293 294 294 295
191 195 202 203 201 201 201 201 210 221 225 224 222 222 225 227 227 228 230 230 229 230 232 234 235 237 240 243 244 245 246 247 247 248 249 244 239 239 242 244 244 244 242 241 240 240 241 243 244 244 244 244 244 244 244 244 245 246 247 248 249 250 252 255 257 260 263 266 269 272 273 274 277 281 284 288 291 293 294 292 291 291 292 293 293 294
196 198 202 206 209 211 210 209 213 221 226 227 225 224 225 226 226 228 231 231 231 232 233 233 235 237 239 241 244 245 246 249 250 251 251 246 240 239 241 241 241 241 240 239 238 239 240 241 242 243 243 244 245 245 244 244 244 245 245 246 246 248 251 254 257 260 263 267 269 270 271 272 276 279 284 287 291 293 294 292 291 291 291 292 292 293
199 201 203 207 211 216 219 219 220 224 228 227 227 229 228 226 226 227 230 231 231 232 233 233 234 236 237 239 243 245 247 251 253 252 251 247 242 240 240 241 240 239 236 235 236 236 237 239 240 241 243 244 245 246 246 245 245 245 246 245 245 247 251 254 257 260 263 266 267 268 269 271 274 278 283 287 290 292 293 292 290 290 290 290 290 291
198 200 203 208 213 217 220 223 224 227 230 229 227 228 228 228 228 227 227 228 229 232 236 236 236 236 237 238 241 243 245 246 246 245 245 246 244 240 239 240 240 237 235 235 235 236 237 238 240 241 243 245 246 247 248 248 248 248 248 246 246 248 251 254 256 259 262 264 266 267 268 270 273 278 282 285 288 292 293 291 289 288 288 289 289 290
198 198 202 209 214 216 220 225 227 228 232 233 231 228 228 229 231 231 230 229 230 233 237 239 240 241 241 241 241 242 241 240 240 241 242 244 245 241 240 241 242 239 237 236 236 236 237 239 240 241 242 244 246 248 249 249 250 250 249 247 247 248 250 253 255 257 260 263 265 266 268 270 272 276 280 283 287 290 291 289 287 286 286 286 287 290
195 197 202 209 213 215 220 226 228 226 228 231 232 230 228 228 232 234 234 233 233 235 239 242 243 244 245 245 246 247 246 246 246 246 246 247 248 247 246 245 243 239 236 235 235 236 238 239 240 240 241 243 245 247 248 249 249 249 249 248 247 248 250 251 253 257 260 262 264 266 267 269 271 275 279 282 286 289 289 287 285 284 283 284 287 291
194 196 203 208 210 214 219 223 223 222 224 226 229 231 231 231 233 236 236 237 238 240 243 246 247 248 249 249 250 250 251 252 251 251 250 251 251 251 249 244 239 236 236 235 235 235 235 236 237 237 239 241 243 245 247 248 248 248 248 248 248 249 250 251 253 257 260 262 264 266 267 268 271 275 278 281 284 287 287 284 282 281 281 283 286 290
201 203 209 208 206 212 219 219 217 219 224 226 226 229 231 233 234 236 238 239 240 243 246 249 250 251 252 253 252 252 252 252 253 253 253 253 253 251 246 240 237 237 237 235 234 234 234 235 236 237 238 241 243 245 246 247 247 247 247 248 249 250 251 252 254 257 260 262 264 265 266 268 271 275 277 279 283 286 284 281 279 279 280 282 286 289
204 210 217 215 212 216 220 219 218 223 228 232 233 234 235 235 235 238 240 242 244 246 248 250 251 252 253 253 253 253 253 253 253 253 254 254 253 250 245 240 238 238 237 236 235 234 234 234 236 238 239 241 243 245 246 247 247 247 247 248 249 251 252 253 255 258 260 262 263 265 266 268 272 274 276 278 282 283 280 277 276 277 278 281 285 287
209 211 217 221 222 224 225 224 224 226 230 233 237 239 239 240 240 242 244 247 249 250 251 252 253 254 254 254 254 254 255 256 256 256 255 254 253 250 247 244 242 240 238 236 236 236 236 236 237 239 240 241 242 244 245 247 247 247 247 248 250 252 254 255 257 258 259 261 263 264 266 269 272 273 275 278 280 278 274 272 273 275 278 282 283 283
Height
5689 5692 5697 5706 5715 5721 5725 5730 5735 5740 5744 5749 5754 5759 5763 5768 5772 5779 5786 5787 5788 5792 5794 5795 5793 5793 5796 5798 5801 5802 5804 5805 5807 5809 5811 5813 5814 5814 5816 5817 5818 5818 5818 5819 5820 5820 5821 5824 5826 5828 5829 5830 5830 5831 5832 5834 5834 5835 5835 5834 5834 5834 5836 5837 5837 5838 5837 5837 5839 5840 5841 5841 5840 5842 5842 5842 5843 5844 5844 5844 5844 5844 5844 5843 5843 5843
5684 5688 5699 5709 5715 5718 5722 5726 5731 5736 5742 5746 5751 5756 5760 5765 5771 5778 5784 5785 5785 5788 5791 5792 5790 5789 5792 5795 5797 5799 5801 5803 5805 5807 5808 5810 5812 5812 5813 5814 5816 5816 5816 5817 5819 5820 5821 5823 5824 5825 5827 5827 5827 5829 5830 5831 5832 5832 5832 5832 5831 5832 5834 5835 5835 5836 5836 5837 5838 5839 5839 5839 5839 5840 5842 5842 5843 5843 5843 5843 5843 5842 5842 5842 5841 5841
5680 5690 5701 5706 5708 5713 5717 5722 5727 5733 5738 5742 5747 5752 5757 5763 5769 5775 5781 5783 5782 5784 5787 5788 5787 5788 5790 5792 5793 5796 5799 5801 5803 5804 5806 5808 5809 5810 5811 5812 5813 5813 5814 5815 5816 5817 5818 5820 5822 5823 5824 5824 5825 5826 5828 5828 5829 5829 5829 5829 5830 5830 5831 5833 5833 5834 5835 5836 5837 5837 5838 5839 5840 5841 5842 5842 5842 5842 5842 5841 5841 5841 5840 5840 5840 5840
5681 5692 5697 5698 5701 5708 5713 5717 5723 5729 5734 5738 5743 5748 5753 5760 5766 5771 5778 5781 5780 5782 5784 5784 5785 5786 5787 5789 5791 5794 5797 5799 5801 5802 5803 5805 5807 5809 5809 5809 5810 5810 5812 5812 5812 5813 5815 5817 5819 5821 5821 5821 5822 5824 5825 5825 5826 5826 5826 5827 5827 5828 5829 5830 5831 5832 5833 5834 5835 5836 5837 5838 5839 5840 5840 5841 5841 5840 5840 5839 5839 5839 5839 5838 5838 5838
5681 5687 5689 5691 5698 5705 5708 5713 5719 5725 5730 5735 5741 5745 5750 5757 5763 5770 5776 5779 5779 5779 5779 5780 5782 5782 5784 5788 5789 5791 5795 5797 5799 5800 5801 5802 5804 5807 5807 5807 5807 5808 5810 5810 5809 5810 5812 5815 5816 5818 5818 5819 5820 5821 5822 5823 5823 5823 5823 5824 5826 5827 5828 5828 5829 5829 5830 5831 5833 5835 5836 5837 5837 5838 5838 5839 5839 5839 5838 5838 5838 5838 5837 5837 5837 5837
5675 5679 5685 5690 5696 5700 5704 5710 5716 5722 5727 5732 5738 5743 5748 5754 5761 5768 5774 5776 5774 5772 5772 5776 5779 5780 5782 5786 5787 5789 5792 5795 5797 5798 5798 5799 5801 5804 5804 5805 5805 5805 5807 5807 5807 5808 5810 5813 5814 5815 5816 5817 5818 5819 5820 5820 5821 5821 5822 5823 5824 5825 5826 5827 5827 5827 5828 5829 5832 5834 5835 5835 5835 5836 5837 5837 5838 5837 5837 5837 5837 5836 5836 5836 5835 5835
5668 5674 5682 5688 5692 5695 5700 5706 5713 5718 5724 5729 5736 5743 5749 5753 5758 5765 5771 5772 5769 5768 5770 5775 5778 5779 5781 5783 5785 5787 5789 5792 5794 5795 5796 5797 5799 5800 5802 5802 5802 5803 5804 5805 5805 5807 5809 5811 5813 5814 5814 5815 5816 5817 5818 5819 5819 5819 5820 5822 5823 5824 5825 5825 5826 5826 5826 5828 5830 5832 5833 5833 5834 5834 5835 5836 5836 5836 5835 5835 5835 5834 5834 5834 5833 5833
5664 5670 5677 5682 5686 5691 5697 5704 5711 5715 5721 5728 5735 5743 5748 5753 5756 5762 5769 5770 5768 5768 5770 5773 5775 5777 5779 5781 5783 5785 5786 5789 5791 5793 5795 5796 5796 5798 5799 5799 5799 5800 5803 5804 5805 5806 5808 5809 5811 5812 5812 5813 5815 5816 5816 5817 5817 5818 5820 5821 5822 5823 5823 5823 5824 5825 5825 5827 5828 5830 5831 5831 5831 5832 5833 5833 5834 5834 5833 5833 5832 5832 5832 5832 5831 5830
5663 5667 5673 5678 5683 5689 5696 5704 5709 5713 5719 5728 5736 5742 5747 5751 5754 5759 5765 5768 5768 5767 5766 5767 5770 5772 5774 5777 5781 5782 5784 5787 5789 5791 5793 5794 5795 5796 5797 5797 5797 5799 5801 5802 5804 5805 5806 5808 5809 5810 5811 5812 5813 5814 5814 5815 5816 5817 5819 5819 5820 5820 5821 5821 5822 5824 5825 5826 5827 5828 5829 5829 5830 5830 5831 5831 5831 5831 5831 5830 5830 5830 5830 5829 5828 5828
5659 5663 5670 5676 5681 5688 5696 5702 5707 5711 5718 5728 5735 5741 5745 5748 5751 5756 5760 5764 5766 5763 5762 5763 5765 5768 5769 5773 5777 5779 5782 5786 5788 5789 5790 5792 5794 5794 5796 5797 5797 5798 5799 5801 5802 5803 5804 5805 5807 5809 5810 5810 5811 5812 5812 5813 5815 5816 5817 5817 5818 5818 5818 5819 5821 5823 5824 5825 5825 5826 5827 5828 5828 5829 5829 5829 5829 5829 5829 5829 5828 5828 5827 5827 5826 5825
5657 5662 5668 5673 5680 5688 5695 5699 5704 5710 5717 5727 5733 5737 5742 5746 5750 5754 5757 5760 5760 5757 5758 5760 5762 5765 5766 5768 5772 5776 5781 5784 5785 5785 5787 5789 5792 5793 5794 5795 5796 5797 5798 5799 5800 5801 5802 5803 5805 5806 5808 5809 5809 5810 5811 5812 5813 5814 5815 5816 5816 5816 5817 5818 5820 5821 5823 5823 5824 5825 5825 5826 5827 5827 5827 5827 5827 5827 5827 5827 5826 5826 5825 5825 5824 5824
5654 5659 5664 5672 5679 5686 5691 5696 5701 5707 5715 5724 5729 5732 5738 5744 5748 5751 5752 5755 5754 5752 5755 5759 5762 5762 5762 5763 5768 5774 5778 5780 5781 5782 5784 5787 5789 5790 5792 5793 5795 5796 5796 5797 5799 5801 5802 5802 5803 5804 5806 5807 5808 5809 5810 5811 5812 5812 5813 5814 5815 5815 5816 5818 5819 5820 5821 5822 5823 5823 5824 5825 5825 5825 5825 5825 5825 5824 5824 5824 5824 5823 5823 5823 5822 5822
5651 5657 5664 5671 5677 5682 5686 5692 5698 5704 5711 5718 5722 5728 5735 5740 5743 5744 5746 5748 5747 5749 5754 5759 5761 5761 5760 5761 5764 5771 5775 5777 5779 5779 5781 5784 5786 5788 5790 5791 5793 5794 5794 5796 5798 5800 5801 5801 5801 5802 5804 5805 5806 5807 5808 5809 5810 5811 5812 5812 5813 5814 5815 5817 5818 5819 5820 5821 5821 5822 5822 5822 5822 5822 5823 5823 5823 5822 5822 5822 5822 5821 5821 5821 5820 5820
5650 5657 5663 5667 5672 5677 5681 5688 5694 5699 5707 5712 5716 5723 5730 5734 5736 5738 5740 5742 5744 5747 5751 5755 5758 5760 5759 5759 5762 5768 5772 5774 5774 5776 5778 5781 5783 5785 5787 5789 5790 5792 5793 5794 5796 5798 5799 5799 5800 5801 5802 5803 5804 5805 5806 5807 5809 5810 5811 5812 5812 5813 5814 5816 5817 5818 5819 5819 5820 5820 5821 5820 5821 5821 5821 5821 5821 5821 5821 5820 5820 5820 5819 5819 5818 5818
5647 5651 5656 5663 5669 5674 5680 5686 5692 5699 5706 5710 5715 5721 5726 5730 5733 5735 5737 5739 5741 5744 5747 5750 5754 5756 5758 5759 5762 5766 5768 5769 5770 5773 5776 5778 5780 5783 5785 5787 5789 5790 5790 5791 5793 5795 5796 5797 5798 5799 5800 5801 5802 5802 5804 5805 5806 5808 5809 5810 5811 5812 5813 5815 5816 5816 5817 5818 5818 5819 5819 5819 5819 5819 5819 5819 5819 5819 5819 5818 5818 5818 5817 5817 5816 5815
5645 5650 5656 5664 5670 5674 5679 5685 5693 5701 5705 5711 5716 5719 5722 5727 5732 5734 5736 5738 5740 5743 5745 5748 5751 5753 5756 5758 5760 5762 5763 5765 5768 5770 5774 5776 5778 5781 5783 5786 5787 5787 5787 5788 5789 5791 5793 5795 5796 5797 5798 5799 5800 5801 5802 5803 5804 5806 5808 5809 5810 5810 5812 5813 5814 5815 5815 5816 5817 5817 5818 5818 5817 5817 5817 5817 5817 5817 5817 5816 5816 5815 5815 5814 5813 5812
5646 5652 5657 5663 5668 5674 5680 5686 5692 5697 5702 5708 5713 5715 5720 5726 5729 5731 5735 5738 5740 5742 5744 5747 5749 5751 5754 5756 5757 5758 5759 5762 5765 5768 5772 5774 5776 5778 5781 5784 5784 5784 5784 5785 5786 5789 5791 5793 5794 5795 5796 5797 5798 5799 5801 5802 5803 5804 5806 5807 5808 5809 5809 5811 5812 5813 5814 5814 5815 5815 5815 5815 5815 5815 5815 5815 5815 5814 5814 5814 5813 5813 5812 5811 5810 5809
5648 5653 5658 5663 5668 5674 5681 5688 5692 5696 5701 5706 5709 5714 5720 5724 5725 5728 5732 5735 5737 5740 5742 5745 5746 5748 5751 5753 5753 5755 5757 5760 5763 5767 5770 5773 5774 5776 5779 5780 5781 5781 5782 5782 5784 5787 5789 5791 5792 5793 5794 5795 5796 5798 5799 5800 5801 5803 5804 5806 5806 5807 5808 5809 5810 5811 5812 5812 5813 5813 5813 5813 5813 5813 5812 5812 5812 5812 5812 5811 5811 5810 5809 5808 5807 5806
5650 5654 5659 5663 5668 5672 5678 5684 5690 5693 5698 5706 5711 5715 5718 5719 5721 5724 5727 5730 5733 5736 5739 5742 5744 5745 5748 5749 5751 5754 5756 5759 5762 5766 5769 5771 5773 5775 5776 5777 5779 5780 5780 5781 5783 5785 5788 5789 5790 5791 5792 5793 5795 5796 5797 5798 5799 5801 5802 5804 5804 5805 5806 5807 5808 5809 5810 5810 5811 5811 5811 5811 5810 5810 5810 5810 5810 5810 5810 5809 5808 5807 5806 5805 5804 5803
5650 5653 5657 5661 5666 5671 5675 5679 5685 5689 5695 5704 5711 5714 5715 5718 5721 5722 5724 5728 5731 5734 5737 5740 5741 5742 5744 5747 5750 5753 5754 5756 5761 5765 5768 5770 5771 5773 5774 5775 5777 5778 5779 5780 5782 5784 5786 5787 5788 5789 5790 5791 5793 5794 5795 5796 5797 5799 5800 5801 5802 5803 5804 5805 5807 5808 5808 5808 5808 5808 5808 5808 5809 5809 5809 5809 5808 5808 5807 5806 5805 5804 5803 5802 5801 5800
5650 5652 5656 5661 5665 5670 5673 5676 5681 5685 5691 5699 5705 5709 5712 5715 5719 5722 5724 5727 5729 5732 5735 5737 5739 5739 5742 5745 5748 5751 5751 5754 5759 5763 5766 5768 5769 5771 5772 5773 5775 5776 5778 5779 5780 5782 5784 5785 5786 5787 5788 5790 5791 5792 5793 5794 5795 5796 5798 5799 5800 5801 5802 5803 5805 5805 5806 5806 5806 5806 5806 5806 5806 5806 5806 5806 5806 5805 5804 5803 5802 5801 5800 5799 5798 5797
5649 5651 5655 5660 5664 5667 5671 5677 5682 5685 5691 5697 5701 5705 5709 5712 5716 5719 5722 5725 5728 5730 5732 5735 5737 5738 5740 5743 5745 5747 5749 5752 5756 5760 5763 5765 5767 5769 5770 5771 5773 5774 5776 5777 5778 5780 5781 5783 5784 5785 5786 5788 5788 5790 5791 5792 5794 5795 5796 5797 5798 5800 5801 5802 5803 5803 5803 5804 5804 5804 5804 5804 5804 5804 5804 5803 5803 5802 5801 5800 5799 5798 5797 5796 5795 5793
5646 5650 5655 5659 5664 5668 5675 5680 5684 5687 5692 5697 5700 5702 5706 5711 5714 5716 5719 5723 5726 5728 5730 5732 5735 5737 5739 5740 5742 5743 5746 5749 5752 5756 5759 5761 5764 5766 5768 5770 5771 5772 5774 5775 5776 5777 5779 5781 5782 5783 5784 5785 5786 5788 5789 5791 5792 5793 5794 5795 5797 5798 5798 5800 5800 5801 5801 5802 5802 5802 5802 5802 5802 5802 5802 5801 5800 5799 5798 5797 5796 5795 5794 5793 5791 5790
5643 5649 5654 5658 5664 5671 5677 5680 5683 5687 5692 5696 5699 5702 5705 5710 5713 5715 5719 5723 5724 5727 5729 5730 5733 5735 5737 5738 5739 5740 5742 5745 5748 5752 5755 5758 5760 5763 5766 5767 5769 5771 5772 5773 5774 5775 5777 5779 5780 5781 5783 5784 5785 5786 5788 5789 5790 5791 5793 5794 5794 5795 5796 5798 5798 5799 5799 5800 5800 5800 5800 5800 5800 5800 5799 5798 5798 5797 5796 5795 5793 5792 5791 5789 5787 5786
5643 5647 5652 5656 5661 5667 5672 5675 5678 5682 5687 5692 5697 5700 5704 5709 5713 5715 5719 5721 5723 5726 5727 5729 5731 5733 5735 5736 5737 5739 5740 5743 5747 5751 5753 5756 5758 5761 5763 5765 5767 5768 5770 5771 5772 5773 5775 5777 5778 5780 5781 5782 5783 5784 5786 5787 5788 5790 5791 5791 5792 5793 5794 5795 5796 5797 5797 5798 5798 5798 5798 5797 5797 5797 5797 5796 5795 5794 5793 5791 5790 5789 5787 5785 5784 5782
5644 5647 5652 5655 5658 5661 5664 5668 5674 5678 5683 5688 5692 5697 5702 5706 5710 5714 5716 5718 5721 5724 5726 5728 5730 5731 5733 5734 5735 5738 5739 5742 5745 5748 5751 5754 5756 5759 5761 5763 5764 5766 5767 5769 5770 5771 5773 5775 5776 5778 5779 5780 5781 5783 5784 5785 5787 5788 5788 5789 5790 5791 5792 5793 5793 5794 5795 5795 5795 5795 5795 5795 5795 5794 5793 5793 5792 5790 5789 5788 5786 5785 5783 5782 5780 5778
5644 5648 5652 5656 5659 5662 5664 5669 5674 5679 5682 5685 5689 5695 5699 5702 5707 5712 5714 5716 5719 5722 5724 5726 5728 5730 5731 5731 5734 5736 5738 5740 5742 5745 5749 5752 5755 5757 5759 5761 5762 5763 5764 5766 5767 5769 5770 5772 5774 5775 5776 5777 5779 5780 5782 5783 5785 5786 5786 5787 5788 5789 5790 5790 5791 5791 5792 5792 5792 5792 5792 5792 5791 5791 5790 5789 5788 5787 5785 5784 5783 5781 5780 5778 5776 5775
5644 5648 5651 5655 5659 5663 5667 5671 5675 5678 5681 5684 5688 5693 5697 5701 5704 5708 5711 5714 5717 5720 5723 5724 5725 5727 5729 5729 5732 5734 5736 5738 5741 5744 5747 5750 5752 5754 5755 5757 5759 5760 5762 5763 5765 5766 5768 5769 5771 5773 5774 5775 5776 5778 5779 5781 5782 5783 5784 5785 5786 5786 5787 5788 5788 5788 5789 5789 5789 5789 5789 5788 5788 5787 5786 5785 5784 5783 5782 5780 5779 5778 5776 5774 5773 5771
5644 5648 5651 5655 5660 5663 5667 5672 5675 5678 5681 5684 5688 5692 5696 5701 5704 5705 5709 5713 5716 5719 5721 5721 5723 5726 5727 5728 5729 5731 5733 5736 5739 5743 5745 5747 5749 5751 5753 5754 5756 5758 5760 5761 5763 5764 5766 5767 5768 5770 5771 5772 5774 5775 5776 5778 5779 5781 5782 5782 5782 5783 5784 5785 5785 5785 5786 5786 5786 5786 5785 5785 5784 5784 5783 5782 5781 5780 5778 5777 5776 5774 5773 5771 5769 5768
5644 5648 5652 5656 5660 5663 5667 5670 5674 5678 5680 5683 5688 5693 5696 5699 5703 5705 5707 5709 5713 5717 5719 5719 5721 5723 5724 5725 5727 5729 5731 5733 5737 5741 5744 5746 5748 5750 5751 5753 5754 5756 5758 5759 5760 5762 5763 5764 5766 5767 5768 5769 5771 5773 5774 5775 5776 5777 5778 5779 5779 5780 5781 5782 5782 5782 5782 5783 5783 5783 5782 5782 5781 5780 5780 5779 5778 5776 5775 5774 5772 5771 5769 5768 5766 5765
5645 5648 5652 5654 5657 5661 5665 5669 5673 5676 5679 5682 5687 5691 5694 5697 5701 5703 5705 5706 5710 5715 5717 5717 5718 5720 5721 5722 5725 5728 5729 5731 5734 5738 5741 5744 5747 5748 5750 5751 5752 5754 5755 5756 5758 5759 5760 5761 5763 5764 5765 5767 5768 5770 5771 5772 5773 5774 5775 5775 5776 5777 5778 5778 5779 5779 5779 5780 5780 5779 5779 5778 5778 5777 5777 5776 5774 5773 5772 5770 5769 5767 5766 5764 5763 5762
5645 5648 5650 5653 5655 5658 5662 5667 5670 5673 5677 5681 5685 5689 5691 5694 5698 5701 5703 5705 5707 5711 5713 5714 5715 5717 5718 5720 5723 5726 5727 5729 5731 5734 5738 5742 5744 5746 5748 5749 5750 5751 5752 5753 5755 5756 5757 5758 5759 5761 5762 5763 5765 5766 5768 5769 5769 5771 5772 5772 5773 5773 5774 5775 5775 5776 5776 5776 5776 5776 5776 5775 5775 5774 5773 5772 5771 5770 5768 5767 5765 5764 5763 5761 5760 5758
5645 5648 5649 5652 5655 5658 5661 5665 5668 5671 5674 5677 5682 5686 5688 5690 5694 5698 5701 5703 5705 5707 5709 5711 5713 5714 5715 5717 5721 5723 5725 5728 5730 5732 5735 5738 5741 5743 5744 5746 5747 5748 5749 5750 5751 5753 5754 5755 5756 5757 5758 5760 5761 5762 5764 5765 5766 5767 5768 5768 5769 5770 5771 5772 5772 5772 5772 5773 5773 5773 5772 5772 5771 5771 5770 5769 5768 5766 5765 5764 5762 5761 5759 5758 5757 5756
5646 5648 5650 5653 5656 5660 5662 5664 5667 5669 5672 5675 5678 5681 5684 5686 5690 5694 5698 5701 5702 5704 5706 5709 5712 5712 5712 5715 5718 5721 5723 5727 5729 5731 5733 5735 5737 5739 5741 5743 5745 5746 5747 5747 5748 5750 5752 5753 5754 5754 5755 5756 5757 5759 5760 5761 5762 5764 5764 5765 5766 5767 5767 5768 5768 5769 5769 5769 5770 5769 5769 5768 5768 5767 5766 5765 5764 5763 5762 5760 5759 5758 5756 5755 5754 5753
5648 5649 5651 5654 5657 5660 5662 5663 5665 5667 5670 5672 5675 5677 5681 5684 5686 5690 5695 5699 5701 5702 5703 5707 5710 5710 5710 5713 5716 5718 5721 5725 5727 5729 5731 5733 5735 5736 5738 5740 5742 5744 5745 5745 5746 5747 5749 5750 5751 5751 5752 5753 5754 5756 5757 5758 5759 5760 5760 5761 5762 5763 5764 5764 5765 5765 5766 5766 5766 5766 5765 5765 5764 5764 5763 5762 5761 5760 5758 5757 5756 5755 5753 5752 5751 5750
5648 5650 5652 5654 5657 5659 5661 5662 5664 5666 5668 5671 5674 5677 5680 5682 5684 5687 5691 5695 5698 5699 5701 5705 5708 5709 5709 5711 5713 5715 5717 5721 5723 5726 5729 5730 5731 5733 5735 5737 5739 5740 5742 5743 5744 5745 5746 5747 5747 5748 5749 5750 5751 5753 5754 5755 5756 5756 5757 5758 5759 5759 5760 5761 5762 5762 5762 5763 5763 5762 5762 5761 5761 5760 5759 5758 5757 5756 5755 5754 5753 5752 5751 5750 5749 5747
5647 5649 5651 5654 5657 5659 5660 5661 5664 5667 5669 5672 5674 5677 5679 5681 5683 5685 5688 5691 5694 5696 5698 5701 5704 5706 5707 5709 5709 5711 5713 5715 5718 5722 5725 5726 5728 5730 5732 5734 5735 5737 5738 5740 5741 5742 5742 5743 5744 5745 5746 5747 5748 5750 5751 5751 5752 5753 5753 5754 5756 5757 5757 5758 5759 5759 5759 5759 5759 5759 5758 5757 5757 5756 5756 5755 5754 5753 5752 5751 5750 5749 5748 5747 5746 5744
5645 5647 5650 5653 5656 5658 5659 5660 5663 5666 5669 5671 5674 5676 5678 5679 5680 5682 5686 5689 5691 5693 5695 5697 5699 5702 5705 5705 5705 5707 5709 5711 5713 5717 5721 5724 5726 5727 5728 5729 5731 5733 5735 5736 5737 5738 5738 5739 5740 5741 5742 5744 5745 5747 5747 5748 5748 5749 5750 5751 5753 5754 5754 5755 5755 5755 5756 5756 5756 5755 5754 5754 5753 5753 5752 5751 5751 5750 5749 5748 5747 5746 5745 5744 5743 5741
5644 5646 5649 5651 5654 5655 5657 5659 5661 5664 5667 5670 5672 5674 5675 5676 5678 5681 5684 5686 5688 5690 5691 5693 5695 5698 5701 5702 5702 5703 5705 5706 5708 5713 5718 5721 5723 5723 5723 5724 5726 5729 5730 5731 5732 5733 5734 5735 5736 5737 5739 5740 5742 5743 5743 5744 5745 5746 5747 5748 5749 5750 5751 5751 5751 5751 5752 5752 5752 5751 5751 5750 5750 5750 5749 5748 5747 5746 5745 5745 5744 5743 5742 5741 5740 5738
5642 5644 5646 5649 5652 5653 5655 5657 5658 5660 5663 5667 5669 5671 5673 5675 5677 5679 5681 5683 5685 5687 5688 5689 5691 5693 5695 5697 5698 5699 5700 5702 5706 5709 5712 5715 5717 5718 5718 5720 5722 5724 5725 5726 5727 5729 5730 5731 5732 5734 5735 5736 5738 5739 5739 5740 5741 5742 5743 5745 5746 5746 5747 5747 5747 5748 5748 5748 5748 5748 5747 5747 5746 5746 5745 5745 5744 5743 5742 5742 5741 5740 5739 5738 5737 5735
5640 5642 5644 5647 5650 5652 5653 5655 5656 5658 5661 5664 5667 5669 5671 5674 5675 5676 5677 5680 5682 5684 5684 5686 5688 5689 5690 5692 5694 5695 5696 5699 5702 5704 5706 5709 5712 5713 5714 5716 5718 5719 5720 5722 5723 5724 5725 5727 5728 5730 5731 5732 5733 5734 5735 5736 5737 5738 5740 5741 5742 5742 5743 5743 5743 5744 5744 5744 5744 5744 5744 5743 5743 5743 5742 5742 5741 5740 5739 5738 5737 5737 5736 5735 5733 5732
5638 5640 5643 5646 5648 5650 5651 5653 5655 5656 5658 5661 5664 5667 5669 5670 5672 5673 5675 5677 5679 5680 5681 5683 5684 5686 5687 5688 5690 5691 5692 5694 5697 5700 5702 5705 5707 5708 5710 5712 5713 5714 5716 5717 5719 5720 5722 5723 5724 5726 5726 5727 5729 5730 5731 5732 5733 5734 5736 5737 5737 5738 5738 5739 5739 5740 5740 5740 5740 5740 5740 5740 5739 5739 5739 5738 5738 5737 5736 5735 5734 5733 5732 5731 5730 5729
5637 5639 5642 5644 5647 5649 5650 5652 5653 5654 5656 5659 5662 5664 5666 5667 5669 5671 5672 5674 5675 5676 5677 5679 5682 5683 5684 5685 5686 5687 5688 5691 5694 5696 5698 5700 5702 5704 5705 5706 5708 5710 5711 5713 5715 5717 5718 5719 5720 5721 5722 5723 5725 5726 5727 5728 5729 5730 5731 5732 5733 5734 5734 5735 5735 5736 5736 5737 5737 5737 5736 5736 5736 5736 5735 5735 5734 5733 5732 5732 5731 5730 5729 5728 5727 5726
5636 5638 5640 5642 5644 5646 5648 5650 5651 5652 5654 5657 5660 5662 5663 5664 5666 5668 5669 5671 5672 5673 5674 5676 5678 5680 5681 5682 5683 5685 5687 5689 5691 5693 5693 5695 5698 5700 5701 5702 5703 5705 5707 5709 5711 5712 5713 5714 5715 5717 5718 5719 5721 5722 5723 5724 5725 5726 5727 5728 5729 5730 5730 5730 5731 5732 5732 5733 5733 5733 5732 5732 5732 5732 5732 5731 5730 5730 5729 5728 5727 5727 5726 5725 5724 5723
5635 5637 5639 5640 5642 5644 5645 5647 5649 5650 5653 5656 5658 5660 5661 5662 5663 5664 5666 5668 5669 5670 5671 5673 5675 5677 5678 5679 5681 5683 5685 5687 5688 5689 5690 5691 5693 5695 5697 5697 5699 5701 5704 5706 5707 5708 5709 5710 5711 5712 5714 5715 5716 5718 5719 5720 5721 5722 5723 5724 5725 5725 5726 5726 5727 5728 5729 5729 5729 5729 5729 5729 5729 5729 5728 5727 5727 5726 5725 5725 5724 5723 5723 5722 5721 5720
5634 5636 5638 5639 5640 5642 5643 5644 5647 5649 5651 5653 5655 5657 5658 5659 5660 5661 5664 5665 5667 5668 5669 5671 5672 5674 5675 5676 5677 5679 5681 5682 5684 5685 5686 5687 5689 5691 5692 5694 5696 5698 5701 5703 5703 5704 5705 5706 5706 5708 5709 5711 5712 5713 5715 5716 5717 5717 5718 5719 5720 5721 5721 5722 5723 5724 5724 5725 5724 5724 5725 5725 5725 5725 5724 5723 5723 5722 5722 5721 5720 5720 5719 5718 5718 5717
5633 5635 5637 5638 5639 5640 5641 5642 5645 5648 5649 5651 5652 5654 5655 5656 5657 5659 5661 5663 5664 5665 5666 5668 5669 5671 5672 5673 5674 5675 5677 5678 5681 5682 5683 5684 5686 5687 5689 5692 5693 5695 5697 5698 5699 5700 5701 5701 5702 5703 5705 5706 5707 5709 5710 5711 5712 5713 5714 5715 5716 5716 5717 5718 5719 5720 5720 5720 5720 5720 5721 5721 5721 5720 5720 5719 5719 5719 5718 5718 5717 5716 5716 5715 5715 5714
5631 5634 5635 5636 5637 5638 5639 5641 5644 5646 5647 5649 5650 5651 5653 5654 5655 5657 5658 5660 5661 5662 5663 5665 5666 5667 5669 5670 5671 5672 5673 5675 5677 5679 5680 5681 5683 5684 5686 5689 5690 5691 5692 5693 5694 5695 5696 5697 5698 5699 5700 5701 5703 5704 5705 5706 5707 5708 5709 5710 5711 5711 5713 5714 5715 5716 5716 5716 5716 5716 5717 5717 5717 5716 5716 5715 5715 5715 5715 5714 5713 5712 5712 5712 5712 5711
5631 5632 5633 5634 5635 5636 5637 5639 5642 5643 5644 5646 5648 5649 5650 5651 5653 5654 5655 5656 5658 5659 5660 5662 5663 5664 5666 5667 5668 5669 5670 5671 5673 5675 5676 5678 5679 5681 5683 5684 5685 5686 5687 5688 5690 5691 5692 5693 5694 5695 5696 5697 5698 5700 5701 5701 5702 5703 5704 5705 5706 5707 5708 5709 5711 5711 5711 5711 5711 5712 5712 5712 5712 5712 5711 5711 5711 5711 5710 5710 5709 5709 5709 5709 5708 5708
5630 5630 5631 5633 5634 5634 5636 5638 5641 5642 5642 5644 5645 5646 5647 5649 5650 5651 5652 5653 5655 5657 5658 5659 5660 5661 5662 5663 5664 5665 5666 5667 5669 5670 5672 5674 5676 5677 5678 5679 5680 5682 5683 5684 5685 5686 5687 5689 5690 5691 5692 5693 5694 5695 5696 5696 5698 5699 5700 5700 5701 5703 5704 5705 5706 5707 5707 5707 5707 5708 5708 5708 5708 5707 5707 5707 5707 5707 5706 5706 5706 5706 5706 5705 5705 5704
5628 5629 5630 5631 5632 5633 5635 5637 5639 5640 5640 5641 5643 5644 5645 5647 5648 5649 5650 5651 5653 5654 5655 5656 5657 5658 5659 5660 5661 5661 5662 5663 5664 5666 5668 5670 5671 5672 5673 5674 5676 5677 5678 5679 5681 5682 5683 5684 5685 5686 5688 5689 5690 5690 5691 5692 5693 5695 5695 5696 5697 5698 5699 5701 5701 5702 5702 5702 5703 5703 5704 5703 5703 5703 5703 5702 5702 5701 5701 5701 5702 5702 5702 5702 5701 5700